Weather Roundup
Issued by NWS Springfield, MO

Home | Current Version | Previous Version | Text Only | Print | Product List | Glossary On
Versions: 1 2 3 4 5 6 7 8 9 10 11 12 13 14 15 16 17 18 19 20 21 22 23 24 25 26 27 28 29 30 31 32 33 34 35 36 37 38 39 40 41 42 43 44 45 46 47 48 49 50
666
NZUS99 KSGF 291007
HRRSGF

HOURLY WEATHER
NATIONAL WEATHER SERVICE SPRINGFIELD MO
500 AM CDT WED MAR 29 2017

......SGF CWA......

CITY           SKY/WX    TMP DP  RH WIND       PRES   REMARKS
SPRINGFIELD    CLOUDY    55  50  83 SE21      29.83S
JOPLIN         CLOUDY    57  55  93 SE18      29.77F
WEST PLAINS    CLOUDY    54  49  83 E16       29.91F
ROLLA          CLOUDY    51  48  89 E18G25    29.91F
OSAGE BEACH    CLOUDY    53  48  83 E12G18    29.89F
BRANSON        CLOUDY    54  50  87 SE18G24   29.85F

......SURROUNDING SGF CWA......

CITY           SKY/WX    TMP DP  RH WIND       PRES   REMARKS
CHANUTE        RAIN      54  52  93 E7        29.77F FOG
PARSONS        LGT RAIN  57  56  96 E3        29.75F
COFFEYVILLE    CLOUDY    58  57  97 E9        29.73F
EMPORIA        LGT RAIN  50  50 100 NE21G28   29.78F
GROVE OK       MOCLDY    63  59  88 E8        29.77S
ROGERS AR      CLOUDY    59  54  83 E18       29.79F
SILOAM SPRINGS CLOUDY    64  55  72 SE7       29.77S
HARRISON AR    CLOUDY    54  52  93 E8        29.86F
NEAR YELLVILLE CLOUDY    55  46  71 SE9G17    29.88R

......KANSAS AND MISSOURI......

CITY           SKY/WX    TMP DP  RH WIND       PRES   REMARKS
KANSAS CTY INT RAIN      50  49  96 NE13      29.93R FOG
DOWNTOWN KC    RAIN      51  50  96 NE13G20   29.91R FOG
COLUMBIA       CLOUDY    51  47  86 E12       29.95R
SEDALIA        LGT RAIN  53  49  86 E17G26    29.88F
ST JOSEPH      RAIN      50  49  96 E13       29.99R FOG
ST LOUIS       CLOUDY    51  43  74 E21       30.04F
SPIRIT OF STL  CLOUDY    51  46  83 E9        30.02F
KIRKSVILLE     CLOUDY    47  44  90 NE13      30.02S
WICHITA        CLOUDY    51  51 100 NE20      29.73F
TOPEKA         RAIN      51  50  96 E21G29    29.85F
OLATHE         LGT RAIN  49  49 100 NE9       29.89F FOG

......TENNESSEE......

CITY           SKY/WX    TMP DP  RH WIND       PRES   REMARKS
MEMPHIS        PTCLDY    62  54  74 E9        29.91S
NASHVILLE      CLEAR     52  50  93 CALM      30.04R

......ARKANSAS.......

CITY           SKY/WX    TMP DP  RH WIND       PRES   REMARKS
FAYETTEVILLE   CLOUDY    63  57  81 E6        29.79R
FT SMITH       CLOUDY    63  55  75 E14       29.77R
LITTLE ROCK    CLOUDY    59  57  93 NE6       29.86S

......OKLAHOMA.......

CITY           SKY/WX    TMP DP  RH WIND       PRES   REMARKS
TULSA          CLOUDY    62  62 100 E10       29.65F
PONCA CITY     LGT RAIN  53  50  89 NW5       29.68F
MCALESTER      CLOUDY    70  61  73 SE13G20   29.64F
OKLAHOMA CITY  LGT RAIN  52  51  97 NE8       29.67F

......IOWA............

CITY           SKY/WX    TMP DP  RH WIND       PRES   REMARKS
DES MOINES     CLOUDY    45  40  82 NE12      30.10S
QUAD CITIES    CLOUDY    43  39  86 E9        30.17R

......ILLINOIS........

CITY           SKY/WX    TMP DP  RH WIND       PRES   REMARKS
QUINCY         CLOUDY    46  42  86 NE18      30.04F
CHICAGO        FOG       35  33  92 NE6       30.22S VSB 1   WCI  30




USA.gov is the U.S. government's official web portal to all federal, state and local government web resources and services.